Ellensburg, WA
on Thursday, January 10, 2013

Thursday
Previous Day Next Day
Daily Summary
 ActualAverage (KYKM)Record (KYKM)
Temperature
Mean Temperature °F 30°F  
Max Temperature 37°F 37°F 61°F (1983)
Min Temperature 19°F 23°F -6°F (1980)
Degree Days
Heating Degree Days 34 35  
Month to date heating degree days 361  
Since 1 July heating degree days 3024  
Cooling Degree Days 0 0  
Month to date cooling degree days 0  
Year to date cooling degree days 0  
Moisture
Dew Point 20°F   
Average Humidity 64    
Maximum Humidity 71    
Minimum Humidity 55    
Precipitation
Precipitation 0.00 in 0.04 in 0.64 in (1979)
Month to date precipitation 0.43  
Year to date precipitation 0.43  
Snow
Snow 0.00 in 0.20 in 10.40 in (1979)
Month to date snowfall 2.3  
Year to date snowfall 2.3  
Since 1 July snowfall 15.3  
Snow Depth in   
Wind
Wind Speed 11 mph   
Max Wind Speed 20 mph   
Max Gust Speed 22 mph   
Visibility 10 miles   
Events     

Key: T is trace of precipitation, MM is missing value
Source: NWS Daily Summary
Time(PST)TemperatureDew PointHumidity Pressure Visibility Wind DirectionWind SpeedGust SpeedPrecipitationEvents Conditions
12:53 AM 27.0°F 18.0°F 69% 29.86 in 10.0 miles WNW 5.8 mph - N/A   Clear
1:53 AM 28.0°F 18.0°F 66% 29.86 in 10.0 miles NW 8.1 mph - N/A   Clear
2:53 AM 27.0°F 17.1°F 66% 29.87 in 10.0 miles NW 10.4 mph - N/A   Clear
3:53 AM 30.0°F 21.0°F 69% 29.87 in 10.0 miles NW 11.5 mph - N/A   Overcast
4:53 AM 30.0°F 21.0°F 69% 29.88 in 10.0 miles NNW 13.8 mph - N/A   Mostly Cloudy
5:53 AM 30.0°F 19.9°F 66% 29.89 in 10.0 miles NW 12.7 mph - N/A   Mostly Cloudy
6:53 AM 30.0°F 19.0°F 64% 29.91 in 10.0 miles NW 11.5 mph - N/A   Clear
7:53 AM 30.0°F 19.9°F 66% 29.94 in 10.0 miles NW 12.7 mph - N/A   Mostly Cloudy
8:53 AM 33.1°F 21.0°F 61% 29.95 in 10.0 miles NW 13.8 mph - N/A   Mostly Cloudy
9:53 AM 34.0°F 21.9°F 61% 29.95 in 10.0 miles NW 19.6 mph - N/A   Partly Cloudy
10:53 AM 35.1°F 21.9°F 59% 29.95 in 10.0 miles NW 16.1 mph - N/A   Clear
11:53 AM 37.0°F 23.0°F 57% 29.93 in 10.0 miles NW 18.4 mph - N/A   Clear
12:53 PM 37.9°F 23.0°F 55% 29.92 in 10.0 miles NW 17.3 mph - N/A   Clear
1:53 PM 37.9°F 23.0°F 55% 29.92 in 10.0 miles NNW 18.4 mph - N/A   Clear
2:53 PM 37.0°F 24.1°F 59% 29.93 in 10.0 miles NNW 16.1 mph - N/A   Clear
3:53 PM 36.0°F 24.1°F 62% 29.94 in 10.0 miles NNW 13.8 mph - N/A   Clear
4:53 PM 34.0°F 23.0°F 64% 29.94 in 10.0 miles NNW 18.4 mph - N/A   Clear
5:53 PM 32.0°F 21.9°F 66% 29.95 in 10.0 miles NW 15.0 mph 21.9 mph N/A   Clear
6:53 PM 30.9°F 21.0°F 67% 29.96 in 10.0 miles NW 11.5 mph - N/A   Clear
7:53 PM 30.0°F 19.9°F 66% 29.98 in 10.0 miles NE 5.8 mph - N/A   Clear
8:53 PM 26.1°F 15.1°F 63% 29.99 in 10.0 miles ENE 10.4 mph - N/A   Clear
9:53 PM 25.0°F 14.0°F 63% 30.00 in 10.0 miles NE 10.4 mph - N/A   Clear
10:53 PM 24.1°F 12.9°F 62% 30.00 in 10.0 miles NE 6.9 mph - N/A   Clear
11:53 PM 19.9°F 12.0°F 71% 30.01 in 10.0 miles Calm Calm - N/A   Clear
Moon Phase
Jan. 10 Jan. 11 Jan. 18 Jan. 26 Feb. 03
Sunrise:07:46 AM (PST) Moon Rise:06:30 AM (PST)1/10
Sunset:04:33 PM (PST) Moon Set:03:48 PM (PST)1/10

Copyright © 2014 The Weather Underground, Inc.